Regional Weather Roundup
Issued by NWS

Home | Current Version | Previous Version | Graphics & Text | Print | Product List | Glossary On
Versions: 1 2 3 4 5 6 7 8 9 10 11 12 13 14 15 16 17 18 19 20 21 22 23 24 25 26 27 28 29 30 31 32 33 34 35 36 37 38 39 40 41 42 43 44 45 46 47 48 49 50
000
ASUS45 KABQ 050010
RWRNM
WEATHER ROUNDUP FOR NEW MEXICO
NATIONAL WEATHER SERVICE ALBUQUERQUE NM
600 PM MDT MON MAY 04 2015

NOTE: "FAIR" MEANS FEW OR NO CLOUDS BELOW 12,000 FEET AGL WITH NO
       SIGNIFICANT WEATHER OR OBSTRUCTIONS TO VISION.

      THIS PRODUCT IS RELEASED AS TWO VERSIONS.  ONE VERSION NEAR
      THE TOP OF THE HOUR CONTAINING PRELIMINARY DATA FROM ALBUQUERQUE
      AND OTHER STATIONS.  A FINAL VERSION WITH ADDITIONAL DATA IS
      ISSUED ABOUT 10 MINUTES AFTER THE HOUR.

NMZ501-503-504-510>518-050100-
NORTHWEST PLATEAU/NORTHCENTRAL MOUNTAINS

CITY           SKY/WX    TMP DP  RH WIND       PRES   REMARKS
FARMINGTON     PTSUNNY   57  43  59 S10G20    29.95R
6HR MIN TEMP:  56; 6HR MAX TEMP:  72; 6HR PCP:  0.02;

LOS ALAMOS     CLOUDY    52  44  75 SW8       30.05R
SANTA FE       LGT RAIN  61  39  44 E12       29.97F
6HR MIN TEMP:  58; 6HR MAX TEMP:  73; 6HR PCP: TRACE;

TAOS           PTSUNNY   61  34  36 SE7       30.01F
ANGEL FIRE     FAIR      46  39  75 NW3       30.09F

$$
NMZ402-403-502-505>509-050100-
WESTCENTRAL MOUNTAINS/SOUTHWEST MOUNTAINS

CITY           SKY/WX    TMP DP  RH WIND       PRES   REMARKS
GALLUP         LGT RAIN  54  43  66 NE7       29.97F
6HR MIN TEMP:  48; 6HR MAX TEMP:  59; 6HR PCP:  0.12;

GRANTS         CLOUDY    58  43  57 SE3       29.99R
SILVER CITY      N/A     72  37  28 S7        29.90F

$$
NMZ407-409-411-412-050100-
SOUTHERN DESERTS

CITY           SKY/WX    TMP DP  RH WIND       PRES   REMARKS
LORDSBURG      FAIR      79  32  18 W17G25    29.82F
DEMING         MOSUNNY   74  40  29 VRB3      29.84F
6HR MIN TEMP:  66; 6HR MAX TEMP:  82; 6HR PCP:  0.01;

LAS CRUCES     LGT RAIN  73  42  32 NW10G17   29.83R
HOLLOMAN AFB   MOSUNNY   78  42  28 SE28      29.79S
ALAMOGORDO     PTSUNNY   75  41  29 SE15G21   29.82S
T OR C         LGT RAIN  64  53  67 SE14G30   29.83R
6HR MIN TEMP:  64; 6HR MAX TEMP:  80; 6HR PCP:  0.08;


$$
NMZ519>523-050100-
CENTRAL VALLEYS/CENTRAL HIGHLANDS

CITY           SKY/WX    TMP DP  RH WIND       PRES   REMARKS
ALBUQUERQUE    CLOUDY    56  49  77 E16       29.94F
6HR MIN TEMP:  45; 6HR MAX TEMP:  77; 6HR PCP:  0.61;

DOUBLE EAGLE   PTSUNNY   55  48  76 W12G23    29.96R THUNDER
MORIARTY ARPT  RAIN      56  43  63 S25       30.01R
6HR MIN TEMP:  56; 6HR MAX TEMP:  73;

CLINES CORNERS CLOUDY    57  40  52 SE8       30.01R
6HR MIN TEMP:  57; 6HR MAX TEMP:  68; 6HR PCP: TRACE;

BELEN          CLOUDY    62  49  62 E10       29.94R
6HR MIN TEMP:  62; 6HR MAX TEMP:  80; 6HR PCP:  0.01;

SOCORRO        FAIR      67  46  47 NE10      29.87S
6HR MIN TEMP:  59; 6HR MAX TEMP:  79; 6HR PCP:  0.04;


$$
NMZ524>526-539-540-050100-
SOUTHCENTRAL MOUNTAINS

CITY           SKY/WX    TMP DP  RH WIND       PRES   REMARKS
RUIDOSO        PTSUNNY   55  46  71 SE12      30.02F

$$
NMZ527>531-050100-
NORTHEAST HIGHLANDS/NORTHEAST PLAINS

CITY           SKY/WX    TMP DP  RH WIND       PRES   REMARKS
LAS VEGAS      CLOUDY    57  40  52 N13       30.03F
6HR MIN TEMP:  57; 6HR MAX TEMP:  66; 6HR PCP: TRACE;

RATON          PTSUNNY   54  49  83 NE13      30.03F
6HR MIN TEMP:  53; 6HR MAX TEMP:  72; 6HR PCP:  0.08;

CLAYTON        CLOUDY    56  50  80 E12       30.00F
6HR MIN TEMP:  54; 6HR MAX TEMP:  73; 6HR PCP:  0.14;


$$
NMZ532>537-050100-
EASTCENTRAL PLAINS

CITY           SKY/WX    TMP DP  RH WIND       PRES   REMARKS
TUCUMCARI      PTSUNNY   65  53  65 SE20      29.94R
6HR MIN TEMP:  55; 6HR MAX TEMP:  75; 6HR PCP:  0.59;

CANNON AFB     HAIL      55  52  88 E18G43    29.97R VSB 0
6HR MIN TEMP:  56; 6HR MAX TEMP:  73; 6HR PCP:  1.71;

CLOVIS AIRPORT CLOUDY    61  55  82 NW7       29.97R THUNDER

$$
NMZ028-029-538-050100-
SOUTHEAST PLAINS

CITY           SKY/WX    TMP DP  RH WIND       PRES   REMARKS
ROSWELL        CLOUDY    65  57  75 NW8       29.85F
6HR MIN TEMP:  61; 6HR MAX TEMP:  79; 6HR PCP:  0.11;

ARTESIA        CLOUDY    66  55  68 NE6       29.90R
CARLSBAD       RAIN      69  62  78 S9        29.86R
6HR MIN TEMP:  67; 6HR MAX TEMP:  84; 6HR PCP:  0.01;

HOBBS          MOSUNNY   72  59  64 SE21G26   29.86F


$$


USA.gov is the U.S. government's official web portal to all federal, state and local government web resources and services.